{"data":{"norad_id":56201,"epoch":"2026-09-21T22:41:03.535584Z","epoch_age_seconds":61881,"freshness":"FRESH","line1":"1 56201U 23054Z   26264.94517981  .00023738  00000+0  40362-3 0  9992","line2":"2 56201  97.3028 175.8769 0006291  68.0919 292.1002 15.51413891193433","mean_motion":15.51413891,"eccentricity":0.0006291,"inclination_deg":97.3028,"raan_deg":175.8769,"arg_perigee_deg":68.0919,"mean_anomaly_deg":292.1002,"bstar":0.00040362,"rev_number":19343,"period_min":92.818557855751,"perigee_km":408.3250297254,"apogee_km":416.86913134553,"semimajor_km":6790.7340805355,"source":"CELESTRAK","updated_at":"2026-09-22T09:00:25.735566Z"}}